Theta_e
311 311 311 310 310 310 310 310 309 307 307 304 301 303 296 295 291 301 306 308 305 298 293 298 298 294 296 301 299 301 300 300 300 297 299 298 299 298 297 298 297 298 297 298 297 298 296 298 297 300 301 303 305 306 305 307 306 307 306 306 306 312 303 300 300 305 306 307 307 306 307 306 304 305 307 307 304 305 304 304 309 302 305 301 301 299 303
310 311 310 310 311 310 310 310 309 308 307 305 303 298 294 295 295 298 307 310 306 297 291 292 294 296 299 300 299 303 302 302 301 300 300 299 298 298 298 299 300 298 301 299 297 301 294 300 299 299 304 302 310 307 307 307 306 305 305 305 310 301 309 302 298 297 299 301 304 304 305 305 303 302 305 307 307 308 308 311 312 303 305 303 301 295 302
310 310 310 310 310 310 309 310 309 309 308 308 305 295 296 296 299 299 302 310 305 295 297 295 295 295 296 296 296 298 299 302 302 301 301 304 303 302 301 302 303 299 301 299 300 302 298 297 303 303 303 303 309 308 306 307 308 308 310 319 311 305 305 301 294 292 290 290 291 294 299 300 303 305 304 306 305 305 306 301 305 297 308 307 301 300 309
310 310 310 309 310 309 310 309 309 309 308 308 304 298 296 295 288 295 302 306 304 303 303 301 297 296 296 295 297 298 297 300 303 303 302 305 304 304 304 304 304 302 302 300 300 300 303 300 301 304 302 305 308 312 312 312 313 318 321 320 311 308 310 304 303 299 296 299 304 309 307 303 300 302 303 303 305 307 307 310 305 299 304 304 301 308 309
309 309 309 309 309 309 309 309 309 309 308 309 304 300 297 297 290 295 293 300 300 300 301 300 299 295 299 293 297 295 297 299 300 304 299 304 303 303 303 303 301 302 301 300 300 302 301 303 302 301 301 303 306 311 311 312 316 325 326 328 311 312 303 305 306 306 305 305 306 307 305 302 303 302 302 304 304 305 305 303 300 314 303 298 303 312 309
310 310 309 310 309 309 308 308 309 308 308 308 305 295 300 290 295 299 300 292 290 295 296 299 297 299 300 295 298 295 296 297 296 302 303 302 303 300 302 302 303 303 301 302 298 301 301 302 300 303 303 303 305 304 308 308 319 318 313 321 313 305 300 303 304 304 305 305 305 306 305 304 304 304 304 303 304 305 303 306 307 312 303 299 309 314 313
310 310 310 309 309 309 309 308 308 308 306 307 302 293 298 299 298 297 301 293 296 296 296 297 298 297 297 295 296 294 296 296 299 297 299 301 300 302 298 300 302 302 303 302 301 303 298 298 303 303 302 303 303 302 305 310 314 312 312 314 316 307 301 306 304 302 303 304 304 305 304 304 304 304 304 305 304 304 305 305 307 309 308 309 313 316 312
309 310 309 309 309 309 309 308 308 307 305 306 299 297 293 292 292 291 296 295 293 294 295 298 297 293 297 292 295 296 295 295 296 298 297 296 299 301 299 300 301 301 301 302 301 303 304 304 301 307 305 304 308 304 306 306 313 313 309 310 315 306 303 307 303 302 301 303 304 304 304 303 302 304 305 305 305 305 305 306 307 309 308 308 310 316 315
309 309 310 309 308 308 308 308 307 305 305 301 298 295 298 296 297 296 292 289 291 295 296 295 293 292 294 292 295 295 295 293 295 295 299 297 298 300 298 299 299 300 300 302 302 305 303 303 303 305 305 302 309 305 308 309 309 311 309 310 311 308 307 306 305 300 300 303 303 303 303 303 302 302 304 304 303 302 304 305 308 307 308 312 310 309 310
309 309 309 309 309 307 308 308 308 306 304 301 299 294 300 299 300 299 295 288 294 291 293 293 292 289 294 296 295 293 293 295 296 294 300 301 301 301 299 298 297 298 300 301 304 304 303 302 303 305 306 308 308 309 309 310 309 314 312 311 309 312 307 304 303 299 300 304 303 302 302 301 298 300 303 305 305 306 306 307 309 308 309 307 306 306 314
308 309 309 308 309 308 308 307 308 306 306 301 298 296 298 295 293 294 295 288 290 292 292 292 291 292 295 295 294 296 294 295 296 291 295 299 299 301 300 298 296 296 298 303 305 304 303 304 305 307 307 307 307 308 309 311 311 313 312 310 311 311 308 305 306 299 300 304 302 302 299 292 294 307 308 307 305 305 304 304 306 310 311 311 313 314 321
309 308 309 309 309 308 308 308 308 307 305 307 305 300 301 301 298 295 291 286 287 293 291 289 291 293 293 295 295 294 293 294 294 297 293 295 297 300 299 298 298 296 305 305 305 304 305 308 307 307 306 306 307 308 309 310 311 315 313 310 309 308 309 306 309 301 300 302 301 297 292 294 309 315 314 310 308 308 307 311 316 314 316 315 313 315 318
309 308 308 309 309 308 308 308 308 307 307 306 305 300 303 303 297 294 291 288 285 288 287 289 293 294 295 294 294 295 296 297 297 297 297 296 296 298 298 298 297 301 305 302 302 303 304 306 309 307 305 305 306 308 310 311 311 313 314 314 311 307 307 308 304 304 303 300 299 291 294 307 311 312 314 313 310 310 312 310 314 316 316 318 316 317 321
308 308 308 307 308 308 308 308 307 308 307 306 303 302 304 302 297 295 292 288 287 290 291 291 291 291 292 292 295 295 296 295 296 297 295 297 296 296 299 301 302 304 303 303 301 303 305 308 303 306 305 307 308 306 308 310 311 311 311 313 313 310 310 307 302 307 298 301 299 299 308 305 307 308 311 311 309 307 306 302 310 317 317 318 318 320 321
307 307 307 308 308 308 307 307 308 308 307 307 305 304 303 303 301 297 296 293 286 289 291 285 291 293 293 294 295 293 293 293 293 294 298 299 297 298 300 302 304 303 303 300 303 307 305 305 301 299 302 301 296 300 309 304 310 312 312 311 312 314 309 311 302 300 304 300 298 298 298 296 305 311 315 316 314 315 314 317 311 315 318 317 317 318 321
308 308 308 307 307 307 307 307 307 307 307 307 305 303 304 305 304 301 297 293 291 283 288 293 294 294 293 293 295 293 291 291 293 294 294 296 297 299 302 304 303 303 302 301 306 305 306 300 298 299 297 299 303 302 302 305 303 310 312 312 312 312 312 312 305 303 303 301 296 297 296 300 311 312 313 315 316 316 317 311 306 315 317 318 317 317 319
308 308 308 307 308 307 307 307 307 307 306 307 304 303 302 306 303 299 296 295 293 286 293 294 294 294 292 290 292 292 294 293 294 290 290 292 294 296 299 301 303 305 307 307 308 305 302 300 302 302 304 306 301 301 306 303 302 304 309 310 309 308 308 308 305 304 304 301 298 296 304 304 310 312 314 315 317 315 313 300 302 317 317 318 319 317 318
308 309 309 308 308 308 307 307 307 307 306 307 306 303 302 306 305 302 298 294 290 290 293 295 293 290 290 293 292 296 298 296 296 296 293 294 295 296 296 297 297 304 308 307 309 303 302 302 298 299 298 307 307 305 298 303 300 304 302 304 305 306 307 308 300 303 303 301 301 303 306 313 313 313 315 316 316 314 303 297 310 318 319 320 321 319 321
307 308 307 307 308 307 307 307 308 307 307 306 306 304 303 305 305 303 298 295 292 287 295 298 298 294 296 297 295 297 298 297 296 291 290 291 294 297 297 298 300 297 302 303 306 305 302 302 305 303 299 304 306 301 308 301 302 308 306 302 302 303 305 306 307 303 302 303 299 301 307 311 312 315 315 318 310 303 303 313 317 321 320 322 322 322 324
307 307 306 307 307 307 307 307 307 308 307 307 305 301 303 306 306 304 299 293 294 291 294 295 296 293 297 295 294 293 295 295 295 292 291 287 298 297 295 297 305 298 299 307 302 304 302 301 303 304 302 303 307 308 305 306 311 306 306 306 300 302 303 306 306 307 305 304 302 298 294 311 314 312 315 318 311 313 317 318 319 320 321 321 321 322 322
307 307 307 307 307 307 307 307 307 307 307 306 305 302 301 305 306 305 305 299 295 290 292 299 299 297 298 297 299 298 296 293 295 293 295 295 299 294 286 291 293 294 294 301 298 301 301 298 301 301 305 303 309 306 303 305 306 310 310 307 304 310 300 304 305 308 304 300 298 298 308 310 315 313 311 317 318 320 321 317 314 318 318 318 318 319 321
307 307 307 307 306 307 307 307 307 306 306 307 306 304 300 304 305 306 305 304 296 293 295 299 301 300 301 302 302 302 300 299 301 301 297 294 298 295 294 296 295 296 299 308 302 303 302 300 303 301 302 303 307 303 306 302 300 310 312 310 300 312 305 310 302 311 308 305 308 313 316 314 315 315 316 318 319 320 319 318 316 316 316 320 318 319 321
307 307 307 307 306 307 306 306 306 306 306 306 306 303 299 302 303 307 305 297 300 300 301 300 301 301 303 303 304 304 303 304 302 301 300 295 293 295 294 294 295 300 301 309 303 302 302 301 299 304 303 304 303 302 306 307 305 307 306 311 311 313 314 314 310 309 313 314 316 318 315 314 314 316 317 315 315 317 318 317 316 318 319 320 318 319 321
306 306 307 307 306 306 306 306 306 306 306 306 305 303 302 302 303 303 302 299 296 292 295 298 296 293 295 296 300 304 306 304 304 303 304 301 291 292 298 300 301 300 303 307 313 305 304 303 302 305 299 304 306 301 301 303 303 306 307 309 311 313 315 313 308 310 307 301 312 313 313 312 313 315 316 317 318 317 319 319 319 319 319 318 320 321 321
306 306 306 306 306 306 306 306 306 306 306 306 307 307 306 303 305 304 298 292 292 291 286 291 293 298 300 302 303 302 303 305 307 307 305 303 299 295 296 302 303 301 300 302 308 305 307 299 302 299 298 306 305 296 304 302 303 307 303 303 305 309 312 309 310 310 309 308 314 312 313 313 313 314 315 315 315 316 317 318 318 319 319 319 320 321 321
306 306 306 306 306 306 306 307 306 306 306 306 306 304 302 302 305 306 303 300 298 294 287 287 292 301 302 300 298 301 305 305 305 305 305 305 304 303 301 303 303 306 306 304 304 300 297 299 303 302 299 301 310 303 303 305 305 309 305 302 305 305 308 306 311 310 311 313 312 312 312 313 313 313 315 316 316 315 317 317 317 317 317 318 318 319 319
306 306 306 306 306 306 306 306 306 306 306 306 305 306 304 304 306 303 299 298 293 288 290 287 292 296 299 296 300 302 303 303 303 303 303 305 305 305 303 302 301 302 302 301 303 301 302 300 300 300 304 305 311 307 309 306 306 304 301 303 307 307 307 311 309 305 305 305 307 310 306 307 313 313 315 315 316 316 315 316 317 317 317 318 316 316 318
306 306 305 305 306 306 306 305 305 305 305 306 306 306 306 304 305 305 305 303 296 288 288 288 289 293 299 296 301 304 305 306 304 303 302 303 304 304 303 302 302 300 300 298 298 300 301 297 298 307 312 312 306 304 311 308 307 303 301 301 305 303 304 305 306 305 304 310 312 316 316 312 315 317 317 317 317 319 316 315 314 315 316 318 317 314 315
306 306 305 306 306 306 305 305 305 305 306 305 306 304 304 305 306 306 305 306 303 296 293 292 295 293 289 295 303 302 304 304 304 303 303 303 303 303 303 303 302 301 301 299 298 298 297 297 301 306 307 314 311 305 306 296 297 296 299 303 305 307 309 307 307 308 309 313 312 314 313 308 311 313 314 316 319 317 314 316 316 316 316 315 315 315 312
305 306 306 305 305 305 305 305 306 305 305 305 303 299 295 299 304 303 305 304 303 299 291 289 287 292 300 299 299 302 303 304 304 303 302 302 302 302 303 303 302 303 301 299 299 294 298 299 301 306 307 315 307 307 301 298 296 300 304 305 306 308 311 311 310 309 307 311 311 312 312 312 313 313 315 317 316 315 315 314 314 315 315 317 316 317 315
306 306 305 305 305 305 305 305 305 305 305 303 299 293 290 289 297 305 305 305 304 298 294 293 289 295 295 301 301 300 302 304 304 303 302 302 303 304 305 304 304 304 299 300 298 297 300 298 301 303 309 311 311 305 301 300 296 298 302 305 306 307 310 312 312 311 311 310 311 312 312 312 312 310 310 313 315 317 316 314 314 316 315 315 315 315 315
306 306 306 305 305 305 305 305 305 305 305 301 297 294 295 298 302 307 305 306 304 297 292 288 289 291 292 296 300 304 302 304 305 305 304 304 301 303 304 304 301 303 302 299 300 302 301 304 302 305 305 308 309 303 302 299 295 296 304 305 307 308 310 313 313 313 314 315 310 308 307 308 310 309 307 311 311 312 312 312 313 315 315 313 313 312 312
305 306 306 306 306 305 305 305 305 305 304 305 305 305 305 305 305 305 305 306 301 296 296 291 287 290 289 294 298 301 303 304 304 302 299 304 300 301 298 301 302 302 306 302 299 298 303 302 306 303 306 311 305 301 299 296 297 302 305 306 307 307 309 312 312 312 313 313 313 309 306 307 309 311 312 311 311 311 311 310 311 313 313 312 311 312 312
306 305 305 306 306 306 306 306 306 305 305 301 297 299 303 305 305 305 306 304 298 299 297 292 288 288 287 297 294 301 305 300 300 301 298 304 305 300 300 299 303 299 303 300 302 303 304 308 304 304 307 304 306 302 295 299 303 304 305 306 307 308 309 310 310 310 310 311 312 312 312 312 313 313 312 312 311 312 312 312 313 314 312 312 311 311 312
305 305 306 306 306 306 306 306 304 302 298 297 298 301 303 304 304 306 305 301 293 292 292 293 293 286 287 292 293 299 306 302 298 301 299 302 309 300 301 298 298 296 298 305 305 304 304 304 307 304 299 305 302 297 298 300 302 305 305 305 305 306 307 306 306 309 310 310 310 309 311 311 310 308 309 311 311 312 313 313 313 314 312 311 312 312 312
306 306 306 306 306 306 305 304 302 299 297 297 299 305 306 308 308 308 307 304 300 293 292 292 292 288 289 287 290 299 305 301 301 301 300 304 301 305 302 299 294 298 306 303 302 305 303 308 306 298 304 299 296 299 300 303 303 304 305 304 305 305 304 305 305 307 307 308 308 308 308 308 308 308 309 310 310 311 311 311 312 313 311 311 312 313 313
306 306 306 306 305 302 299 298 303 300 300 303 305 308 310 309 307 306 304 301 303 303 295 291 288 289 291 291 294 298 300 296 302 298 300 299 298 302 300 300 296 303 304 303 304 302 305 311 303 298 298 296 298 304 306 305 305 304 304 306 307 306 306 307 308 306 305 305 305 306 305 305 307 308 309 309 309 310 309 308 309 310 310 310 312 312 312
305 305 303 302 300 296 296 299 301 305 308 307 308 305 303 304 297 298 299 296 300 300 296 294 289 292 295 291 289 299 298 298 304 296 298 303 299 297 303 300 301 304 296 300 302 309 307 305 301 298 298 303 305 306 307 308 307 307 307 307 306 307 307 307 307 306 304 303 303 303 304 304 305 306 306 307 307 308 308 309 310 311 312 312 313 313 312
302 303 301 301 297 294 296 300 307 307 306 307 306 299 297 300 295 292 293 296 297 293 296 293 288 290 292 291 293 301 297 295 296 301 294 302 299 294 299 296 301 304 295 298 300 310 298 299 300 299 297 301 303 304 308 308 308 308 308 308 308 307 308 307 308 306 306 307 307 307 307 307 306 306 307 308 308 309 309 310 310 311 312 313 313 313 313
302 297 296 296 296 298 305 306 306 304 304 298 299 296 291 297 291 288 297 290 290 294 295 290 296 296 294 292 292 293 302 298 297 298 299 300 304 297 300 302 302 302 293 296 299 308 299 295 298 298 296 301 302 306 308 308 307 308 308 309 309 309 309 308 308 308 309 308 309 308 309 308 308 307 308 308 308 308 309 311 312 313 312 312 314 314 313
299 298 298 296 299 301 302 304 305 303 298 294 293 294 292 288 294 295 294 290 290 293 298 298 299 294 297 295 295 290 300 305 306 306 303 298 305 304 300 298 304 298 295 295 303 306 302 298 297 296 297 302 304 307 309 308 308 309 309 309 309 309 309 309 309 309 308 308 309 309 309 309 309 309 309 309 310 310 311 312 312 312 313 313 313 313 314
301 300 302 303 303 303 302 301 299 296 295 295 289 286 288 290 294 292 294 288 289 295 298 299 295 295 296 298 297 296 299 304 304 304 302 297 303 302 298 299 301 296 293 301 305 304 300 294 294 295 300 305 307 308 308 307 308 308 309 310 310 310 309 310 309 310 310 310 310 309 310 310 310 310 311 311 311 311 312 313 312 312 312 314 314 314 314
305 305 303 300 299 298 299 292 295 296 286 285 283 282 287 285 288 288 290 294 297 297 297 305 303 305 304 305 300 302 302 308 302 302 301 298 304 303 299 295 298 292 297 303 304 298 295 294 294 297 304 306 307 307 308 309 309 310 310 310 310 310 310 310 310 310 311 310 310 310 310 310 310 311 311 312 312 312 313 313 313 313 313 314 314 314 314
306 304 299 297 293 295 295 284 293 292 286 285 284 282 285 286 289 290 291 294 297 298 301 297 299 298 293 302 301 301 303 305 305 304 301 303 299 296 297 292 295 300 304 300 299 295 295 297 299 301 305 307 307 308 309 309 309 309 309 310 311 311 311 311 312 311 311 312 311 311 312 311 312 312 313 313 312 312 313 313 314 314 314 314 314 314 315
297 293 290 290 288 291 289 284 291 287 284 287 289 287 288 285 288 290 290 298 299 296 302 302 300 299 297 303 305 303 303 299 306 301 295 299 293 294 295 293 296 296 292 293 295 296 296 295 302 304 305 305 306 307 309 309 309 309 309 310 310 311 311 310 311 312 312 312 312 312 311 312 312 312 311 312 312 312 312 313 313 314 314 314 315 316 317
293 288 288 284 282 288 287 285 286 285 289 290 289 291 289 291 292 292 298 301 297 298 299 299 299 300 299 304 299 298 303 303 299 297 299 298 290 290 295 301 300 293 294 294 292 290 292 296 300 303 305 306 307 309 310 310 311 311 310 309 310 310 311 311 312 312 312 313 313 313 313 312 312 312 311 312 313 313 313 314 315 314 314 315 315 315 317
290 292 286 286 285 287 291 284 284 286 286 288 290 292 293 295 297 298 300 301 298 300 301 301 301 301 299 299 300 299 303 301 296 298 301 294 290 294 301 292 286 288 289 289 290 292 293 295 301 305 306 308 309 309 309 310 311 311 311 311 311 311 311 311 312 312 313 313 314 314 314 314 314 314 314 313 313 314 314 315 315 315 314 314 315 317 318
287 291 290 284 283 285 285 288 292 291 293 291 293 296 297 299 297 293 299 303 302 302 301 301 299 300 297 302 302 296 297 299 296 295 299 294 296 293 288 290 289 293 295 292 291 296 299 302 304 306 308 310 309 310 310 310 311 312 311 311 312 312 312 312 312 312 313 313 313 313 314 314 313 314 314 314 314 314 314 315 316 316 316 317 317 318 318
294 288 287 286 289 289 289 293 288 286 292 295 296 296 298 298 298 299 300 302 302 302 302 301 300 300 294 296 295 297 292 297 293 289 297 294 289 287 288 286 287 287 294 297 297 299 301 304 307 308 308 309 310 310 311 311 312 312 310 311 311 311 312 313 313 314 314 313 314 314 314 314 314 314 314 314 313 313 315 316 317 317 317 317 317 318 319
288 288 292 289 291 293 295 294 290 290 294 295 294 295 296 297 297 299 301 301 301 301 302 301 301 298 293 296 290 291 290 293 294 291 293 291 292 293 291 287 290 291 294 300 301 302 305 307 308 307 308 309 311 311 311 311 312 312 312 312 312 312 311 312 313 314 315 315 314 315 315 315 314 314 313 313 314 315 315 316 316 316 317 318 318 318 318
293 290 292 296 293 292 293 290 290 290 292 293 294 295 295 296 297 297 301 299 300 301 301 296 294 292 291 290 288 288 290 297 297 294 293 292 297 295 291 290 293 297 299 303 305 306 307 307 308 308 308 309 311 312 312 312 312 312 312 312 312 312 312 312 312 313 315 315 315 314 314 314 315 315 316 316 316 316 315 315 316 317 317 319 319 318 318
291 290 293 296 297 298 297 297 297 295 295 296 297 298 299 297 299 300 303 301 302 299 295 298 295 293 289 289 290 293 297 297 294 296 293 294 297 294 294 296 298 301 302 303 304 306 307 308 308 309 309 310 311 311 312 313 313 313 313 312 312 313 313 313 313 313 314 315 316 315 315 315 316 315 316 317 316 314 313 313 316 317 317 319 319 319 319
Wind_Speed
17 17 18 18 17 14 14 14 13 15 16 13 11 10 4 3 7 10 11 5 5 4 4 3 4 7 5 5 10 6 7 5 2 3 3 5 5 4 7 7 8 9 9 7 9 9 8 8 9 7 8 12 11 4 3 6 6 5 4 9 8 5 5 6 10 8 6 6 3 1 2 7 12 16 14 14 17 18 15 11 6 9 6 7 4 9 4
18 18 18 17 15 13 13 12 12 13 13 9 10 8 5 6 8 7 1 2 5 3 5 2 5 6 6 7 9 7 7 4 4 6 4 5 4 6 5 5 11 7 9 9 9 8 8 8 13 10 6 7 6 10 7 5 4 7 5 7 9 8 2 7 6 6 7 11 7 8 3 6 9 10 13 15 14 16 10 5 3 11 12 12 8 14 6
18 17 17 15 14 14 13 11 11 12 12 9 8 7 6 8 6 7 6 0 4 3 2 3 4 4 6 6 6 7 6 6 11 11 9 5 7 3 5 7 4 7 5 8 9 8 12 7 7 10 3 6 2 4 2 5 5 9 6 6 9 8 7 10 12 13 13 12 15 17 11 11 5 5 9 12 21 20 6 12 5 10 7 15 12 11 4
17 17 16 15 14 13 11 10 11 11 11 10 8 7 5 4 6 4 3 1 3 5 3 4 5 4 6 6 4 4 7 6 8 10 11 10 8 9 6 4 3 7 7 8 9 11 10 11 3 3 5 4 3 2 1 5 7 9 12 8 9 3 5 11 11 13 14 11 8 2 4 5 12 10 13 11 12 16 14 2 6 12 4 8 7 10 6
16 16 15 14 13 11 10 10 11 11 9 10 8 6 3 4 3 4 4 7 3 1 2 4 6 5 6 3 4 5 6 6 7 7 8 9 11 5 9 7 8 6 9 10 11 12 11 12 12 11 11 8 4 7 7 9 7 9 9 10 8 1 6 13 16 16 15 16 15 11 14 13 12 14 15 16 17 16 17 15 16 8 7 11 6 9 12
15 15 15 14 11 9 9 9 10 10 7 10 5 4 3 2 3 3 4 3 5 7 1 9 9 7 6 5 5 7 9 6 5 4 5 4 4 7 5 11 13 11 4 2 4 1 7 9 12 8 10 11 11 14 9 8 2 7 6 4 8 6 11 16 17 18 19 21 20 13 11 15 14 16 15 17 17 17 20 17 14 12 13 16 9 8 11
15 15 15 15 12 10 9 9 10 7 6 7 4 4 4 4 5 5 7 4 4 5 9 13 9 9 6 5 7 9 9 8 3 3 6 5 3 10 7 9 7 3 2 1 3 2 4 6 5 7 7 10 8 8 8 7 3 2 5 1 3 2 8 6 12 17 19 21 20 13 15 12 14 16 17 17 19 19 20 19 17 16 14 14 10 14 16
17 16 17 15 12 10 9 9 8 6 5 5 4 3 4 3 3 3 6 5 9 11 8 6 7 6 7 5 5 4 5 6 8 5 2 5 4 1 7 5 2 4 2 3 5 6 7 6 5 2 4 8 6 8 6 4 2 5 4 4 2 3 3 1 7 10 14 17 16 14 15 16 17 15 15 16 16 18 22 21 19 16 18 18 14 13 13
18 18 16 15 15 11 10 8 8 5 2 5 3 3 1 3 3 4 6 8 6 7 6 5 5 6 5 5 4 4 3 5 9 11 8 10 7 1 3 7 8 2 4 4 8 6 1 5 9 11 8 7 3 1 1 2 4 2 3 3 4 3 4 1 2 5 8 11 14 15 14 16 19 20 18 14 15 14 11 9 4 10 9 8 4 6 9
17 16 17 15 13 12 12 9 8 4 2 4 3 4 2 4 4 4 4 5 6 7 7 7 5 5 3 2 4 4 6 9 9 8 5 8 11 10 7 8 9 9 4 6 3 3 9 11 12 12 11 11 14 10 10 7 4 0 3 5 6 2 2 3 1 8 10 6 9 15 14 10 12 16 16 14 13 11 11 13 13 16 15 11 10 11 7
17 16 15 15 13 13 13 11 10 3 4 5 4 5 3 3 3 3 3 6 6 6 6 7 6 5 4 5 9 9 10 8 7 4 5 7 4 4 12 11 7 8 8 4 7 10 12 13 14 11 11 14 14 10 9 10 7 5 7 2 3 2 2 5 0 6 7 8 6 6 5 11 11 9 17 17 16 16 13 12 12 13 13 8 10 10 9
18 17 15 14 12 11 14 13 11 4 7 4 3 6 4 3 3 2 3 6 6 3 5 6 6 8 10 12 8 11 13 12 8 6 12 13 17 14 11 10 7 5 3 11 14 13 15 14 10 6 10 13 13 12 11 10 8 7 7 6 4 8 5 6 2 4 7 3 6 6 13 10 6 1 1 10 18 18 20 8 3 5 7 3 4 7 8
17 18 17 15 12 11 11 13 11 5 6 5 5 6 4 4 3 2 3 5 7 5 6 8 8 11 11 13 13 11 11 12 11 12 12 13 18 9 5 5 8 8 13 15 14 11 6 7 5 6 8 8 9 11 12 13 11 10 7 8 3 6 6 3 3 3 1 2 4 6 7 1 1 2 2 2 2 6 7 3 4 2 6 6 9 11 4
16 17 16 15 14 15 13 13 10 7 5 5 5 6 5 5 5 4 4 4 7 6 7 10 11 12 12 10 8 10 11 12 11 9 9 6 11 14 8 7 7 11 11 10 9 5 4 3 4 4 6 7 4 5 12 13 11 9 8 9 8 9 4 3 6 4 6 3 5 6 4 4 3 3 4 5 6 12 15 12 9 7 4 6 7 6 5
17 17 17 16 15 15 14 12 11 9 7 7 7 6 6 6 5 4 3 3 8 9 7 7 2 4 7 9 9 10 8 8 9 7 8 10 10 6 4 9 11 12 11 6 3 3 2 2 4 5 4 6 8 6 4 6 4 9 9 8 8 7 4 1 2 0 2 5 6 4 6 9 7 3 3 1 3 6 6 4 5 3 3 5 7 8 6
16 15 13 15 15 14 14 13 11 12 8 8 6 6 6 7 5 4 4 5 4 8 6 9 8 8 7 7 8 8 9 9 8 9 9 5 5 11 11 10 13 12 7 5 3 2 2 4 5 5 8 8 2 2 5 4 3 6 7 11 11 3 3 2 3 2 1 2 6 6 8 5 4 2 2 3 4 3 2 6 9 4 2 3 6 8 7
16 15 14 13 13 15 14 13 13 10 11 8 5 5 6 8 7 6 4 5 6 10 9 13 12 10 8 8 7 6 5 5 6 7 6 6 9 14 13 14 12 4 4 4 4 3 4 5 4 5 5 3 7 5 5 3 6 6 8 7 9 8 2 3 6 3 1 2 5 8 4 2 2 7 7 7 5 3 7 11 7 3 3 2 4 6 6
16 15 14 13 13 14 14 14 12 10 11 10 6 5 4 6 8 6 5 6 7 11 11 14 14 10 9 6 8 7 5 6 6 6 7 9 10 6 10 11 8 4 6 4 1 4 5 3 6 5 7 1 4 4 6 6 7 7 7 8 4 2 2 2 9 4 1 2 5 5 4 1 4 9 11 8 3 3 11 10 3 3 3 2 2 7 8
16 15 14 13 14 13 13 12 11 10 11 9 7 6 6 6 8 8 5 6 6 7 3 3 7 11 11 10 10 8 7 8 8 7 8 8 1 8 14 9 5 6 6 3 2 2 4 4 2 0 4 2 3 4 2 6 4 3 10 7 5 5 2 3 3 3 4 1 3 7 3 4 10 13 13 6 5 9 9 4 1 3 7 8 8 12 11
16 14 11 14 13 12 10 10 11 10 9 8 6 5 2 5 7 9 7 7 6 11 12 12 10 15 9 9 9 9 8 9 7 8 6 7 6 14 8 4 1 5 5 4 2 1 3 2 2 1 4 4 2 4 2 2 1 5 6 10 9 10 7 2 3 0 2 1 3 3 4 3 18 20 9 1 5 2 5 7 6 6 11 13 11 10 9
13 14 13 12 12 12 11 10 9 10 10 9 7 4 5 5 6 8 9 7 5 10 11 8 11 13 12 14 14 13 12 12 9 7 6 7 6 5 4 1 6 5 3 5 2 3 2 2 1 1 2 2 3 4 3 2 5 3 2 6 5 10 9 2 1 3 0 2 1 2 5 12 16 12 5 2 6 7 5 6 10 7 9 11 10 9 9
12 12 11 11 11 12 11 9 8 9 10 7 4 3 6 4 7 7 8 7 8 11 10 9 10 12 13 14 13 13 14 15 15 11 9 9 6 5 8 12 10 4 3 3 4 1 2 3 2 1 3 3 2 4 5 3 7 2 2 2 6 4 8 5 3 1 2 4 2 4 8 10 11 10 7 9 9 6 7 5 8 10 8 6 9 9 8
11 11 11 11 10 10 10 9 7 8 8 7 6 4 6 3 4 5 5 6 8 11 11 12 12 13 13 16 18 17 17 16 16 15 14 11 12 8 10 9 8 4 5 3 2 3 3 3 2 3 3 1 4 5 2 2 1 5 0 5 3 6 7 11 11 1 4 5 3 8 5 9 12 10 9 7 9 6 5 7 8 7 7 6 7 7 6
11 11 10 10 11 9 8 7 7 6 7 7 5 4 4 4 6 4 5 6 6 9 10 10 9 7 6 8 7 10 14 15 16 15 11 10 12 10 6 9 6 4 4 3 2 4 3 3 3 3 2 2 5 3 3 1 5 5 3 2 4 5 4 1 7 11 6 4 2 2 5 7 10 8 7 8 9 9 8 8 8 8 8 9 10 9 10
9 10 10 10 11 7 6 7 7 7 7 7 6 6 5 4 4 4 5 6 5 4 8 9 11 13 14 13 11 11 11 9 9 12 13 15 16 12 8 2 7 4 3 7 6 5 3 3 3 1 1 1 2 1 5 4 2 8 3 5 5 1 13 9 9 13 5 8 8 6 4 5 5 6 4 6 9 11 10 8 8 8 9 9 8 10 11
8 9 9 9 9 8 7 6 6 5 6 5 6 4 4 5 2 4 4 5 4 4 6 12 8 1 4 10 12 10 8 8 10 13 15 17 18 17 16 11 10 5 2 6 7 3 1 3 5 4 2 2 1 2 2 3 3 3 6 6 6 11 11 3 5 6 6 10 6 7 6 4 5 4 3 2 4 9 10 9 10 11 13 13 13 13 10
7 8 7 7 7 7 6 6 5 5 7 7 5 5 6 5 5 6 6 3 4 7 7 11 10 10 6 14 16 12 12 13 13 13 14 16 17 16 14 13 12 8 3 4 5 5 4 6 5 5 4 2 1 1 1 2 3 2 3 8 13 8 2 3 6 7 9 12 11 14 10 2 2 4 2 1 4 8 11 10 11 12 12 11 14 13 12
7 7 6 7 6 6 5 4 6 6 6 6 4 5 6 7 8 9 8 6 7 8 9 11 12 12 13 19 13 6 7 9 11 12 13 14 15 14 13 14 11 8 6 4 3 3 3 4 5 3 2 2 2 1 1 0 0 3 6 8 9 7 8 8 4 2 8 13 19 6 5 11 8 6 3 3 4 8 10 9 10 9 9 10 12 13 12
6 7 7 6 5 6 5 4 5 5 4 3 4 6 7 9 10 9 10 8 7 7 8 11 12 12 7 7 11 11 9 8 9 11 11 12 14 14 13 13 10 8 5 4 5 4 4 6 5 3 2 1 3 3 1 3 3 3 5 11 12 10 10 10 11 4 9 8 8 4 8 10 8 6 5 5 4 6 11 9 8 9 8 8 10 12 12
5 5 6 7 5 4 2 5 4 4 1 2 2 3 3 0 2 3 8 8 7 5 5 6 7 5 6 6 9 8 8 6 7 9 12 10 11 11 11 10 9 7 4 3 1 4 5 5 4 3 2 3 2 2 2 3 3 2 9 12 13 14 9 6 6 4 6 8 10 10 11 12 9 7 6 7 8 9 9 8 10 10 9 10 9 8 5
5 5 4 7 6 4 4 5 4 1 2 1 1 3 2 2 4 3 6 6 5 4 4 4 8 8 9 6 8 11 9 6 6 7 10 11 10 10 7 6 4 6 4 4 2 4 2 3 2 0 2 1 1 2 3 4 4 2 9 11 10 12 11 9 10 12 12 11 10 10 11 9 9 11 11 9 8 8 10 9 10 9 9 9 8 6 5
6 6 5 6 4 5 6 4 2 2 3 3 4 3 0 1 2 2 4 4 1 4 3 5 7 5 7 6 4 6 9 8 4 3 4 7 6 6 6 8 6 7 5 3 3 1 3 3 1 1 0 2 1 4 4 4 4 2 8 10 10 10 11 10 9 12 11 6 10 14 12 11 9 7 6 5 7 8 10 9 7 8 9 9 7 7 6
6 6 6 6 6 6 5 5 4 3 4 4 7 11 14 15 12 9 8 5 3 4 2 3 5 6 5 6 9 7 3 2 3 4 3 5 4 6 5 6 4 3 6 4 2 2 2 1 1 4 5 2 3 4 6 7 4 4 7 6 7 7 10 11 10 13 13 13 11 9 7 7 6 6 5 6 7 6 6 6 5 5 6 8 8 7 6
7 6 6 7 7 7 6 6 5 5 3 3 5 4 3 9 10 11 7 5 3 2 2 3 4 6 7 7 6 2 1 2 1 3 4 3 3 5 4 5 4 4 5 4 1 2 1 0 3 2 1 6 3 5 5 7 7 7 6 7 10 9 7 10 13 13 12 10 9 10 8 6 6 7 9 10 9 8 7 6 5 8 8 8 8 7 6
7 7 7 8 9 8 9 8 4 3 5 5 5 5 3 6 7 5 9 6 3 3 2 3 2 3 5 5 3 0 4 4 3 4 2 3 2 3 3 3 1 2 2 2 1 2 2 3 2 2 4 2 4 7 6 6 7 6 5 7 9 8 6 7 8 7 7 8 8 8 9 10 10 10 8 6 7 6 7 8 7 8 8 8 7 8 7
7 8 9 10 11 8 4 3 3 3 3 4 3 3 6 7 7 6 6 3 2 2 3 2 1 3 4 5 5 3 7 3 2 1 1 3 3 1 1 2 3 1 0 1 1 2 3 3 2 4 3 6 7 5 5 5 6 6 7 7 7 6 4 4 4 5 5 5 6 6 7 8 8 4 4 6 6 7 7 7 7 7 7 6 6 5 6
9 10 11 9 4 2 3 2 1 3 3 3 7 12 14 3 5 4 3 3 4 3 4 2 4 6 4 5 4 4 6 3 2 1 2 3 4 3 3 1 3 2 2 4 3 4 4 3 5 8 6 6 5 6 6 6 6 7 7 6 6 7 6 6 4 4 6 7 7 6 6 5 3 2 3 4 5 6 8 8 8 7 7 7 6 6 7
10 9 4 2 1 2 1 1 2 2 9 12 10 5 2 3 2 2 2 3 2 3 3 2 6 2 1 3 5 2 4 3 2 1 2 0 4 3 1 2 3 2 5 5 5 2 3 4 6 8 6 7 7 8 7 6 6 6 6 6 7 6 5 5 4 1 6 5 4 3 3 3 2 2 2 4 5 6 5 4 4 5 5 5 6 5 5
3 2 1 0 1 2 2 2 4 11 8 3 1 1 1 1 1 2 2 2 1 3 2 3 3 1 3 5 7 4 4 4 5 2 2 2 1 3 2 5 1 1 2 3 4 2 4 6 5 5 6 4 5 8 8 6 6 6 5 5 4 4 4 5 5 3 1 2 2 2 3 3 2 1 3 2 3 3 3 3 4 5 6 5 5 5 5
2 4 3 3 2 2 3 3 9 7 2 1 0 1 1 1 2 1 2 1 2 3 2 4 3 4 5 5 6 6 1 2 2 3 2 2 2 1 2 2 1 1 3 4 3 2 5 6 3 4 6 5 6 6 6 5 5 6 5 5 5 5 4 4 4 3 4 4 4 3 2 2 2 1 1 1 2 4 5 6 5 5 5 5 5 4 4
4 5 4 3 4 5 6 8 5 1 1 1 1 1 1 1 2 1 1 3 3 2 4 3 2 2 3 4 3 5 5 3 5 4 3 2 1 1 3 4 0 3 3 4 1 1 3 5 5 5 4 4 5 5 4 5 5 5 5 5 5 5 5 4 4 4 3 3 3 2 2 1 1 1 1 2 3 4 4 4 4 3 3 2 2 2 3
6 5 6 7 8 8 6 2 1 0 1 0 1 1 1 2 0 2 3 2 2 1 2 3 3 2 2 4 4 3 6 4 3 2 1 3 4 2 3 2 1 3 4 1 1 1 3 5 4 5 4 5 4 4 4 6 6 6 6 6 6 5 4 3 4 4 3 3 3 3 3 3 3 2 2 3 3 4 3 4 4 4 4 2 1 2 2
12 10 4 3 2 2 2 1 1 1 0 1 1 1 0 1 1 2 1 2 1 2 1 1 1 4 4 3 4 7 5 1 2 1 1 2 2 2 3 2 2 3 3 1 1 4 7 6 5 5 4 4 4 5 5 5 5 5 6 5 5 4 4 3 4 4 4 4 4 3 3 3 3 3 2 3 3 4 3 3 3 3 3 3 3 3 4
2 2 1 1 1 1 1 1 0 1 1 1 1 3 4 2 2 3 3 2 3 2 1 3 4 5 5 3 3 2 2 3 2 1 3 1 3 3 3 3 4 3 1 2 3 6 6 5 6 6 4 4 4 5 5 5 5 4 5 6 5 5 4 4 4 4 5 3 4 3 3 3 3 3 4 4 4 5 4 4 4 4 4 4 4 5 5
1 1 1 0 1 2 0 1 1 1 3 4 2 3 4 4 5 3 2 2 0 3 3 2 3 4 7 5 3 3 0 2 1 1 2 3 4 4 3 3 2 2 1 5 6 5 5 6 5 5 5 5 4 4 4 4 4 3 3 3 5 5 4 4 5 4 4 4 4 3 4 3 4 4 5 5 4 4 5 5 5 5 5 5 5 5 5
4 1 2 2 3 3 2 1 2 3 2 1 2 2 3 6 5 8 3 1 4 4 4 6 5 5 5 1 2 2 3 2 2 3 2 2 2 3 2 1 2 3 3 4 6 7 7 5 4 5 4 4 4 4 3 3 3 2 2 4 4 4 3 2 2 2 2 3 3 4 5 5 6 5 5 5 5 5 5 4 4 4 4 4 5 5 5
2 2 2 0 2 2 2 3 3 2 3 5 5 5 6 7 7 8 6 3 7 6 6 5 4 3 1 3 3 0 1 1 4 2 1 4 3 2 0 3 3 2 3 6 5 5 5 2 2 4 4 4 4 4 4 4 4 4 4 3 3 4 3 3 4 5 4 4 5 5 5 5 5 4 3 4 4 3 4 4 3 3 3 3 4 4 4
1 2 0 3 2 2 4 1 2 4 7 8 8 6 7 5 4 6 6 6 5 4 3 3 1 2 2 2 1 1 3 3 3 3 3 3 1 2 2 3 2 3 3 4 6 3 5 4 1 4 4 3 4 4 5 5 5 5 5 4 5 5 5 5 5 5 5 5 5 5 5 5 5 4 4 3 3 4 4 4 4 3 3 3 3 4 4
2 1 1 2 1 1 3 3 1 4 6 7 6 7 6 6 5 4 5 2 2 3 2 1 1 1 2 1 1 2 3 5 3 2 2 3 3 2 2 2 2 4 5 4 6 4 4 3 2 3 3 4 4 4 4 3 4 4 5 5 5 5 5 5 5 5 4 4 4 4 5 4 3 3 4 4 5 5 5 4 4 4 4 5 5 5 5
2 1 1 1 1 1 3 4 4 4 4 3 3 4 6 7 8 7 6 6 3 1 2 1 2 2 0 1 1 2 2 3 2 1 4 4 4 3 2 4 4 4 5 3 5 4 4 3 2 2 2 2 3 4 4 4 4 4 5 5 5 4 4 5 4 4 4 3 4 4 3 3 4 4 5 5 4 3 3 4 5 5 5 4 4 4 4
0 1 0 1 3 5 7 7 8 8 11 11 10 8 8 7 7 8 8 6 5 2 3 3 1 2 1 3 1 2 1 2 2 4 3 4 3 3 3 5 4 4 6 4 5 4 3 2 1 1 2 2 3 3 3 4 4 4 4 4 4 3 3 3 3 3 3 3 3 3 5 4 3 3 2 2 2 3 4 5 5 5 5 4 3 4 4
2 2 4 2 2 3 4 4 3 2 4 6 6 7 6 7 10 8 7 5 3 5 3 2 1 2 2 3 1 1 3 0 3 2 5 3 3 3 4 5 6 5 5 5 5 3 2 1 2 2 2 3 4 4 4 4 3 4 5 5 5 5 4 4 4 4 3 2 3 2 2 2 2 2 2 2 4 6 6 6 5 5 4 3 3 3 3
Wind_Direction
315 315 316 319 322 325 325 327 328 334 337 345 348 334 308 312 256 293 306 271 221 228 237 252 223 226 242 317 283 257 269 259 270 238 167 207 202 210 211 203 205 216 238 212 232 220 250 235 238 241 238 249 239 248 152 119 174 206 188 198 190 109 194 190 231 232 232 220 121 151 205 215 214 210 209 193 209 204 215 219 134 206 153 201 180 235 240
312 313 314 318 320 322 321 322 330 333 345 341 336 340 324 300 293 312 189 318 202 240 250 242 240 251 268 267 271 284 279 279 269 234 227 219 171 206 200 211 221 247 203 224 230 185 248 213 233 240 217 254 234 239 241 173 214 203 166 212 147 197 152 209 204 229 228 230 214 216 142 213 216 212 207 205 212 211 217 99 91 223 184 197 188 239 193
309 310 312 315 318 318 317 323 325 331 333 341 343 331 315 292 257 237 287 241 210 250 341 319 316 329 326 306 282 272 249 227 244 253 248 234 248 230 232 232 194 220 202 231 237 223 228 272 217 240 219 251 357 308 252 201 236 233 219 235 152 217 168 187 212 210 215 207 209 213 201 204 209 235 213 207 209 209 152 206 162 225 161 197 214 229 160
307 309 310 311 312 313 316 322 322 322 330 328 337 322 311 322 330 298 283 201 234 244 253 40 359 329 339 313 272 261 258 254 249 243 254 242 244 242 267 261 262 258 255 256 244 241 227 232 242 198 236 237 235 162 174 211 244 243 234 219 172 221 179 192 201 214 224 229 225 176 118 133 217 196 210 204 222 214 202 191 198 213 145 207 212 217 196
307 305 307 306 308 317 319 320 317 316 322 332 330 307 238 303 250 307 323 322 221 47 29 13 1 341 338 290 326 290 270 306 289 210 247 202 226 223 217 230 236 221 231 241 249 244 245 236 250 248 262 267 273 303 313 309 278 273 283 224 206 130 216 196 206 211 220 219 217 197 195 212 206 208 206 200 197 206 208 204 221 122 117 231 198 194 218
304 306 305 303 303 304 307 307 311 310 314 323 324 305 254 251 254 353 8 312 294 330 287 1 326 310 303 278 293 284 291 293 281 300 254 336 236 221 188 225 229 243 226 70 241 188 235 235 244 248 245 266 272 280 267 262 295 342 348 273 199 210 220 202 202 212 216 222 225 198 192 216 208 212 210 202 194 195 209 216 216 154 209 231 184 171 211
300 297 296 298 298 295 296 301 302 305 309 315 312 295 275 278 321 300 348 288 304 303 300 310 297 300 297 278 272 274 282 286 347 322 318 297 216 208 227 204 197 170 40 253 239 216 261 241 223 238 239 228 247 248 267 236 178 345 351 26 165 250 251 233 212 217 213 221 224 202 199 206 214 212 210 203 197 201 206 212 213 202 224 233 210 184 209
295 293 293 295 299 300 297 295 299 301 316 308 302 287 295 312 350 305 347 298 290 291 293 290 306 297 302 296 258 298 291 302 344 327 318 296 278 28 233 245 11 344 336 219 226 220 247 318 290 358 316 266 209 246 236 269 166 9 9 337 79 222 245 147 199 227 232 231 228 217 209 214 220 214 204 205 209 204 200 207 206 200 217 217 211 196 217
295 297 299 298 296 296 292 289 286 288 254 309 311 307 330 306 305 287 304 301 281 271 267 286 311 306 283 251 281 322 320 348 341 303 259 241 272 335 11 14 341 345 301 245 249 255 344 310 271 276 276 267 26 305 64 30 278 356 21 360 345 236 270 55 154 235 238 231 225 218 214 220 229 229 215 195 196 208 214 226 154 190 204 205 154 219 226
298 297 292 289 289 287 279 273 268 259 200 281 272 262 310 302 280 265 267 271 282 296 291 289 283 261 263 312 345 332 310 323 329 316 258 238 256 275 358 3 342 299 274 283 298 343 307 287 275 269 263 254 265 257 260 280 288 92 26 329 295 310 312 298 229 250 257 240 211 222 210 212 233 233 231 207 195 197 196 209 190 196 194 201 207 229 215
292 291 290 289 289 291 286 286 282 238 181 260 259 263 274 290 319 307 241 261 268 251 276 273 254 266 330 336 327 313 300 311 313 287 297 341 315 9 344 328 319 294 281 308 337 308 293 279 268 258 248 242 242 247 245 246 225 194 132 227 288 305 305 309 96 284 279 283 202 155 167 220 226 219 218 209 202 201 206 205 205 213 199 204 205 216 215
292 290 287 285 284 286 287 281 276 225 210 227 239 260 252 240 244 240 279 261 265 274 272 271 274 289 300 304 306 298 298 299 295 297 287 284 283 296 300 295 269 266 24 334 322 315 296 264 247 246 240 239 237 234 226 223 218 201 166 150 264 280 284 274 216 267 285 74 125 195 223 227 208 125 357 217 213 202 209 193 184 196 220 262 260 243 234
290 289 286 281 279 279 279 281 276 254 241 226 234 255 191 176 209 241 264 270 267 276 281 276 278 280 282 285 288 282 284 292 294 289 277 277 288 288 260 282 278 281 342 321 314 309 309 286 257 206 213 209 222 223 215 210 197 180 175 148 187 272 257 247 213 229 192 246 205 241 241 276 62 61 106 78 231 222 153 138 178 214 227 231 236 234 216
292 289 289 289 286 284 274 267 267 256 242 213 232 237 218 186 215 226 230 256 268 254 271 289 285 274 269 265 282 298 299 296 297 286 277 262 276 292 294 263 288 319 306 310 293 271 276 225 265 213 173 168 168 212 215 217 214 197 164 144 147 249 271 243 285 169 271 298 247 263 358 279 207 181 164 155 173 171 182 204 196 172 195 204 233 262 258
301 295 292 292 288 283 276 274 268 253 224 199 240 237 224 203 212 221 229 237 270 280 267 257 250 325 320 298 309 305 303 305 312 300 289 279 266 257 305 319 310 300 299 281 249 226 242 298 257 232 189 192 210 210 113 213 196 200 159 118 117 208 241 316 280 252 234 277 289 258 235 243 197 138 109 327 328 310 322 241 162 183 189 217 229 238 234
291 290 284 281 282 279 279 277 275 273 252 217 224 236 229 200 198 214 225 230 270 285 256 233 259 306 306 300 301 298 298 303 304 308 304 289 286 317 317 318 306 295 275 224 262 223 185 229 252 239 223 214 153 175 202 161 188 164 139 126 127 127 57 217 270 291 188 223 258 250 245 239 48 84 352 24 330 298 253 208 207 137 251 209 225 232 223
299 292 290 290 286 283 281 280 274 269 265 232 223 231 250 199 194 195 203 225 220 242 292 298 302 303 304 295 287 270 269 279 315 322 317 326 330 317 310 324 304 273 282 252 215 206 187 215 252 278 274 246 200 203 100 172 172 158 134 124 112 116 196 256 249 265 127 299 255 253 246 271 352 338 329 326 345 208 190 204 195 98 1 290 229 209 177
290 292 293 297 294 292 288 279 273 261 252 237 227 218 238 181 192 185 216 232 245 263 260 266 273 275 266 292 294 303 301 284 288 298 281 298 303 321 334 330 332 322 311 278 228 222 199 188 224 238 257 263 327 163 221 161 195 171 171 149 123 50 341 285 280 308 83 152 277 276 247 190 6 338 326 319 248 222 188 203 115 46 36 355 194 137 131
291 293 301 291 287 285 284 285 285 280 264 239 224 235 244 200 191 200 226 241 231 248 229 268 294 283 276 288 274 277 275 296 304 307 305 316 310 347 313 278 284 316 336 326 281 240 218 192 106 149 278 261 244 228 123 195 207 114 127 101 102 127 165 279 272 246 278 28 284 266 320 56 353 342 325 295 179 180 203 80 225 91 87 66 88 94 90
296 297 294 291 288 284 281 280 281 279 271 247 220 246 240 173 197 200 210 235 245 261 267 264 254 261 265 272 276 273 277 273 270 276 276 262 338 349 328 158 35 339 309 310 202 11 280 206 107 69 239 233 261 335 274 280 32 169 173 169 169 167 171 188 249 293 177 113 295 258 231 91 352 337 311 171 277 31 84 112 84 85 87 86 73 80 88
295 300 304 300 296 291 286 281 280 277 264 248 224 230 247 192 187 211 224 232 260 276 278 250 250 257 266 262 262 267 268 266 268 265 263 275 315 345 304 23 2 349 322 350 7 30 9 324 60 311 324 288 339 275 223 222 204 285 305 167 180 143 187 154 271 280 238 52 301 311 355 318 328 327 287 47 86 127 106 106 103 81 91 91 91 66 64
295 301 303 307 306 298 288 282 275 270 268 271 238 206 248 191 194 212 227 222 241 245 262 295 301 282 268 264 261 254 254 257 259 265 280 280 272 263 280 298 293 296 291 317 326 266 54 358 277 242 300 320 289 264 327 229 196 61 10 153 186 211 183 150 157 183 275 173 206 325 332 329 333 3 39 86 79 84 94 77 99 106 92 92 91 95 81
298 302 304 300 296 289 291 290 293 287 279 257 221 203 235 232 207 203 215 246 245 260 269 275 265 257 253 248 243 244 243 240 246 247 244 259 280 256 252 257 266 228 250 278 336 304 338 328 309 342 291 346 349 322 281 318 62 17 358 41 38 29 76 108 101 105 117 72 127 279 314 344 347 9 16 51 86 64 73 85 81 54 58 43 75 63 50
304 306 298 295 292 295 295 287 275 279 277 261 236 227 230 213 230 217 229 238 259 288 285 250 248 257 238 259 260 234 235 239 234 237 230 210 242 272 246 235 240 272 244 13 334 328 347 290 304 320 284 308 337 311 310 142 57 355 318 52 37 69 8 350 116 173 163 121 188 298 338 340 348 351 22 42 47 50 46 54 60 69 70 70 57 65 61
299 299 295 294 296 300 296 296 292 282 268 263 247 242 258 259 224 214 253 273 268 292 294 294 260 260 272 278 280 272 257 248 236 226 217 210 216 229 238 143 184 228 330 359 343 350 344 315 327 329 292 74 77 334 318 295 88 9 51 38 346 119 3 330 155 158 166 160 168 152 89 334 339 335 359 51 63 67 57 54 55 56 60 66 61 71 64
292 292 299 307 307 308 306 301 295 297 303 281 245 224 221 249 184 201 244 254 279 269 277 285 292 93 310 296 273 261 260 245 237 230 220 214 215 223 244 272 285 283 19 339 350 336 324 291 265 229 223 270 154 157 291 354 306 349 52 51 8 308 310 257 176 125 70 67 89 121 136 95 341 332 23 31 72 84 77 64 61 65 65 61 56 51 59
298 297 298 301 298 297 303 309 298 289 287 278 257 236 236 248 224 210 214 218 283 280 243 260 285 294 302 288 283 278 258 245 238 232 230 224 222 223 231 246 257 276 301 296 256 243 206 225 237 255 195 239 37 343 291 340 344 16 20 2 359 339 230 35 114 122 157 164 179 171 133 212 235 277 286 110 87 99 97 88 74 67 63 62 68 55 43
307 307 304 296 304 310 308 305 295 280 263 276 271 260 246 245 231 223 220 215 211 254 292 293 294 297 310 281 276 266 249 226 215 216 219 223 222 223 226 234 239 255 246 223 245 204 239 254 237 220 228 186 119 342 294 173 136 74 17 6 350 325 310 304 245 190 195 172 165 188 104 126 141 157 295 345 62 87 85 83 92 90 85 80 82 81 62
321 318 311 307 301 295 317 314 303 307 313 299 288 280 263 241 248 228 224 217 227 249 265 280 284 285 284 305 308 290 273 244 226 214 207 206 209 212 220 224 227 232 237 255 263 268 256 261 273 251 232 194 168 150 164 50 34 39 0 350 341 323 305 269 269 280 40 73 105 101 131 127 124 119 140 110 76 89 99 99 80 75 74 77 83 82 89
319 317 319 309 302 305 325 301 292 307 261 292 313 301 303 16 98 247 216 216 210 232 265 285 297 293 305 291 286 291 288 260 233 212 205 201 200 204 210 206 218 217 221 246 295 277 267 276 267 240 206 226 202 113 93 83 79 67 10 0 343 326 336 23 34 25 104 90 87 83 88 97 99 111 111 105 99 108 96 87 92 88 70 58 56 53 64
321 322 330 314 304 315 285 265 280 207 173 248 318 291 305 328 41 36 163 176 168 215 270 270 269 291 292 251 266 280 281 273 229 211 202 198 199 200 193 176 196 175 198 221 217 229 272 254 262 304 125 61 48 76 93 148 142 355 360 355 336 337 342 9 48 66 82 88 93 93 90 89 104 93 58 55 72 85 103 102 92 95 107 101 97 90 63
321 317 311 302 303 293 290 291 287 255 229 238 222 227 254 133 152 146 173 144 6 285 281 295 300 297 303 286 261 274 280 270 245 189 175 173 191 182 172 181 194 194 205 219 249 299 245 258 266 30 98 3 36 87 49 50 75 38 350 349 337 343 6 4 34 48 44 26 115 94 70 57 30 54 97 56 67 73 86 90 99 113 114 111 113 111 111
323 324 321 318 308 307 305 308 302 262 267 272 279 273 270 267 253 229 242 256 266 253 243 266 273 303 282 311 317 293 214 196 183 190 163 183 156 155 168 193 201 192 200 240 237 253 315 302 203 78 32 331 74 90 66 47 35 22 12 347 335 351 14 12 34 53 52 34 30 65 68 56 40 29 54 67 57 53 62 84 102 120 105 98 90 82 76
326 323 315 311 307 300 297 290 278 277 261 262 280 244 234 228 246 248 217 208 245 243 251 272 301 302 289 310 296 11 303 289 138 191 152 162 146 165 147 161 170 211 175 215 337 264 233 48 56 63 28 42 26 83 61 42 24 31 26 356 356 346 359 35 35 38 36 25 38 63 60 50 43 27 23 31 31 26 36 33 46 66 60 59 58 49 42
327 314 306 297 296 293 287 283 277 249 279 275 259 261 261 235 213 201 173 171 195 220 212 233 233 309 316 320 287 22 7 279 192 179 185 131 222 153 127 152 101 233 109 211 270 349 24 51 348 49 53 349 57 68 61 33 28 20 17 20 4 339 4 38 30 29 30 26 35 43 48 39 34 35 1 3 30 12 33 35 26 56 63 49 36 28 27
317 305 295 296 295 292 284 254 230 234 230 243 229 248 221 257 205 182 194 235 275 274 260 293 265 272 295 313 334 343 339 318 21 118 49 123 148 94 157 135 142 90 344 225 57 28 36 356 283 70 28 68 52 46 50 17 23 20 28 28 5 5 4 30 66 46 50 34 37 38 46 55 67 43 12 16 18 21 25 46 43 52 60 56 40 31 29
306 303 306 299 283 222 245 242 166 218 249 284 296 293 287 265 88 127 167 224 231 242 272 296 275 259 263 306 305 285 326 347 31 160 142 164 149 154 179 159 105 131 135 85 73 61 42 3 74 84 63 65 61 47 41 31 22 19 18 9 8 12 13 11 31 87 83 52 29 17 24 32 48 49 31 39 38 30 36 35 24 29 33 31 27 24 22
309 306 316 309 276 275 268 209 213 313 301 289 289 279 133 169 251 159 182 222 201 186 227 221 258 285 202 248 264 13 328 286 312 168 158 292 141 157 226 125 113 173 105 91 70 29 52 55 74 81 75 49 52 45 33 36 28 28 23 16 18 15 10 8 343 70 85 76 39 5 359 332 331 351 2 48 48 49 39 22 24 24 25 25 27 14 11
312 284 266 210 317 280 293 348 346 330 311 270 222 261 248 172 185 231 206 210 165 234 211 226 261 231 238 263 268 269 248 310 321 276 155 168 208 131 230 136 128 134 113 132 96 279 83 82 90 76 72 63 38 31 32 34 44 39 34 40 29 28 14 25 26 9 345 22 50 47 355 347 349 19 7 37 77 94 84 65 50 37 28 24 20 10 10
348 351 347 322 283 281 332 350 342 327 268 235 57 302 273 182 223 253 158 207 230 220 187 249 231 220 211 244 302 313 230 226 313 14 50 123 315 165 162 97 70 126 104 94 68 348 127 108 93 98 84 54 60 38 33 33 45 38 38 36 42 44 38 48 51 41 53 57 42 34 23 4 4 353 25 38 50 63 59 50 39 32 27 25 15 13 19
359 331 313 311 318 320 314 318 313 234 270 137 5 353 321 249 217 221 236 266 255 212 189 240 204 245 226 232 210 256 294 283 263 253 282 32 45 226 139 100 86 97 82 99 27 17 93 97 91 75 80 55 55 39 46 60 54 55 43 43 47 43 40 52 57 55 75 101 113 110 106 101 92 42 50 51 58 60 61 60 56 47 36 30 24 23 34
298 285 285 289 293 292 298 260 235 229 93 45 126 277 229 288 231 224 214 275 14 360 183 196 255 304 299 174 210 202 270 232 270 278 266 44 359 30 85 90 47 101 109 78 282 133 116 94 95 98 85 76 59 65 55 57 49 45 46 43 48 43 42 53 68 74 72 90 95 94 89 85 84 67 58 66 68 58 51 53 49 37 29 11 350 34 32
280 268 261 276 295 256 267 287 59 50 50 346 7 353 323 306 352 334 318 214 295 302 1 169 272 292 261 184 248 200 245 1 288 284 81 37 327 39 51 61 78 93 93 279 215 116 105 102 108 100 92 64 55 50 45 45 36 34 44 42 44 39 41 45 51 56 55 62 66 65 70 76 72 65 62 73 87 92 79 62 42 30 19 6 3 8 9
337 129 199 271 294 282 296 360 262 255 28 41 16 3 331 339 41 359 333 4 347 329 356 356 6 22 313 268 285 293 228 213 219 240 69 12 60 26 54 62 68 57 7 93 90 96 95 82 92 107 90 79 54 41 37 32 22 10 32 33 34 38 42 49 52 72 77 81 77 75 73 72 78 78 65 55 45 44 41 43 28 16 4 353 5 13 9
356 28 12 24 359 282 324 21 326 59 29 352 327 358 353 334 320 310 282 339 211 286 340 313 288 284 270 271 246 223 297 346 359 50 46 8 58 9 50 86 73 56 73 99 97 92 101 103 110 94 69 62 40 33 18 28 28 18 347 27 44 37 34 54 62 61 62 64 64 75 76 65 62 56 52 46 39 29 27 21 9 4 7 355 355 6 8
43 32 351 40 5 349 25 21 349 19 27 353 320 334 290 277 277 284 284 335 277 283 280 287 295 276 265 270 117 334 4 336 47 51 333 73 87 57 325 304 129 69 71 75 107 110 105 89 54 78 58 34 22 15 15 17 25 5 21 41 30 34 39 47 75 77 64 61 63 61 59 54 47 43 45 39 35 23 21 18 11 3 349 350 2 355 350
68 29 68 83 67 1 8 24 352 293 286 300 269 270 264 275 281 284 283 241 246 253 271 273 262 271 344 349 335 33 343 2 62 343 252 67 73 259 217 69 47 33 96 106 88 91 87 315 9 50 17 14 9 4 16 15 17 20 30 32 27 32 28 42 54 56 50 55 57 56 49 45 43 40 39 47 42 29 19 10 15 3 350 351 342 341 350
42 250 150 57 36 312 357 301 202 269 245 243 263 269 268 273 285 276 254 224 247 261 269 263 198 182 109 48 19 327 11 358 75 41 30 81 3 35 55 54 51 57 37 83 94 83 103 129 38 18 10 2 9 4 11 8 6 16 23 22 25 23 18 24 33 35 35 45 48 51 47 41 37 36 37 32 42 40 25 16 5 357 356 351 353 2 4
116 73 69 136 186 178 249 221 113 291 277 270 276 279 277 279 274 315 355 312 270 276 270 263 81 49 63 205 336 32 40 337 40 15 353 51 49 32 51 60 32 68 49 66 111 122 108 81 42 2 8 358 9 13 10 356 356 8 15 13 11 5 4 10 14 14 22 39 43 45 45 37 35 34 32 29 30 19 5 354 2 10 10 4 5 4 6
34 4 60 17 316 199 258 228 200 247 260 255 281 311 338 337 347 348 6 344 331 302 173 161 6 78 339 324 46 44 65 338 46 51 42 47 42 38 43 72 39 79 107 90 103 101 86 56 37 32 4 351 8 10 1 360 4 13 15 11 10 6 8 357 354 4 16 26 27 33 34 29 29 24 23 20 5 332 338 9 17 13 8 5 357 357 360
92 96 116 238 35 337 336 356 1 354 357 359 352 345 345 336 342 323 342 333 312 293 67 46 350 36 30 20 16 45 38 249 68 46 46 54 15 44 31 66 53 46 76 71 74 63 60 53 26 6 8 3 8 357 358 356 2 8 5 6 4 359 355 2 357 354 8 24 21 27 38 31 15 357 344 326 341 359 22 32 20 8 359 354 350 345 339
350 7 5 339 251 307 322 263 246 291 313 311 321 333 334 339 341 318 317 299 323 45 36 332 50 32 57 45 21 253 256 45 53 64 64 36 359 44 67 69 77 68 70 76 66 53 49 53 31 357 350 350 351 346 350 355 6 16 12 8 3 2 2 3 358 354 343 11 39 37 40 21 360 350 325 338 6 15 18 3 354 353 345 337 340 334 328